Location: Newark
(13.6797°N, 8.5297°E)
Time: 06:18:07
(UTC+00:00)

A-11 Canister half - Pass Details

Date: 21 January 2020
Orbit: 1517 x 1683 km, 47.2° (Epoch: 17 February)

Event Time Altitude Azimuth Distance (km) Brightness Sun altitude
Rises 00:08:05 0° 264° (W) 4,749 - -80.2°
Reaches altitude 10° 00:12:23 10° 281° (W) 3,736 - -79.4°
Maximum altitude 00:18:44 20° 324° (NW) 3,001 - -78.1°
Drops below altitude 10° 00:25:02 10° 8° (N) 3,679 - -76.8°
Sets 00:29:17 0° 25° (NNE) 4,654 - -76.0°
